owner,sensor,date,latitude,longitude,vertical_datum,sea_water_temperature,qcFlag 
SCCF RECON,ioos:station:SCCF:12:1,2010-03-01T00:00:00Z,26.4966,-82.1479,2.5,15.04,2 
SCCF RECON,ioos:station:SCCF:12:1,2010-03-01T01:00:00Z,26.4966,-82.1479,2.5,15.16,2 
SCCF RECON,ioos:station:SCCF:12:1,2010-03-01T02:00:00Z,26.4966,-82.1479,2.5,14.85,2 
SCCF RECON,ioos:station:SCCF:12:1,2010-03-01T03:00:00Z,26.4966,-82.1479,2.5,14.59,2 
SCCF RECON,ioos:station:SCCF:12:1,2010-03-01T04:00:00Z,26.4966,-82.1479,2.5,14.55,2 
SCCF RECON,ioos:station:SCCF:12:1,2010-03-01T05:00:00Z,26.4966,-82.1479,2.5,14.61,2 
SCCF RECON,ioos:station:SCCF:12:1,2010-03-01T06:00:00Z,26.4966,-82.1479,2.5,14.84,2 
SCCF RECON,ioos:station:SCCF:12:1,2010-03-01T07:00:00Z,26.4966,-82.1479,2.5,14.83,2 
SCCF RECON,ioos:station:SCCF:12:1,2010-03-01T08:00:00Z,26.4966,-82.1479,2.5,14.88,2 
SCCF RECON,ioos:station:SCCF:12:1,2010-03-01T09:00:00Z,26.4966,-82.1479,2.5,14.79,2 
SCCF RECON,ioos:station:SCCF:12:1,2010-03-01T10:00:00Z,26.4966,-82.1479,2.5,14.65,2 
SCCF RECON,ioos:station:SCCF:12:1,2010-03-01T11:00:00Z,26.4966,-82.1479,2.5,14.72,2 
SCCF RECON,ioos:station:SCCF:12:1,2010-03-01T12:00:00Z,26.4966,-82.1479,2.5,14.78,2 
SCCF RECON,ioos:station:SCCF:12:1,2010-03-01T13:00:00Z,26.4966,-82.1479,2.5,14.51,2 
SCCF RECON,ioos:station:SCCF:12:1,2010-03-01T14:00:00Z,26.4966,-82.1479,2.5,14.67,2 
SCCF RECON,ioos:station:SCCF:12:1,2010-03-01T15:00:00Z,26.4966,-82.1479,2.5,14.66,2 
SCCF RECON,ioos:station:SCCF:12:1,2010-03-01T16:00:00Z,26.4966,-82.1479,2.5,14.76,2 
SCCF RECON,ioos:station:SCCF:12:1,2010-03-01T17:00:00Z,26.4966,-82.1479,2.5,14.91,2 
SCCF RECON,ioos:station:SCCF:12:1,2010-03-01T18:00:00Z,26.4966,-82.1479,2.5,15.16,2 
SCCF RECON,ioos:station:SCCF:12:1,2010-03-01T19:00:00Z,26.4966,-82.1479,2.5,15.09,2 
SCCF RECON,ioos:station:SCCF:12:1,2010-03-01T20:00:00Z,26.4966,-82.1479,2.5,15.17,2 
SCCF RECON,ioos:station:SCCF:12:1,2010-03-01T21:00:00Z,26.4966,-82.1479,2.5,15.45,2 
SCCF RECON,ioos:station:SCCF:12:1,2010-03-01T22:00:00Z,26.4966,-82.1479,2.5,15.68,2 
SCCF RECON,ioos:station:SCCF:12:1,2010-03-01T23:00:00Z,26.4966,-82.1479,2.5,15.63,2 
SCCF RECON,ioos:station:SCCF:12:1,2010-03-02T00:00:00Z,26.4966,-82.1479,2.5,15.53,2 
SCCF RECON,ioos:station:SCCF:12:1,2010-03-02T01:00:00Z,26.4966,-82.1479,2.5,15.47,2 
SCCF RECON,ioos:station:SCCF:12:1,2010-03-02T02:00:00Z,26.4966,-82.1479,2.5,15.32,2 
SCCF RECON,ioos:station:SCCF:12:1,2010-03-02T03:00:00Z,26.4966,-82.1479,2.5,15.44,2 
SCCF RECON,ioos:station:SCCF:12:1,2010-03-02T04:00:00Z,26.4966,-82.1479,2.5,15.56,2 
SCCF RECON,ioos:station:SCCF:12:1,2010-03-02T05:00:00Z,26.4966,-82.1479,2.5,15.48,2 
SCCF RECON,ioos:station:SCCF:12:1,2010-03-02T06:00:00Z,26.4966,-82.1479,2.5,15.22,2 
SCCF RECON,ioos:station:SCCF:12:1,2010-03-02T07:00:00Z,26.4966,-82.1479,2.5,15.27,2 
SCCF RECON,ioos:station:SCCF:12:1,2010-03-02T08:00:00Z,26.4966,-82.1479,2.5,15.47,2 
SCCF RECON,ioos:station:SCCF:12:1,2010-03-02T09:00:00Z,26.4966,-82.1479,2.5,15.53,2 
SCCF RECON,ioos:station:SCCF:12:1,2010-03-02T10:00:00Z,26.4966,-82.1479,2.5,15.51,2 
SCCF RECON,ioos:station:SCCF:12:1,2010-03-02T11:00:00Z,26.4966,-82.1479,2.5,15.49,2 
SCCF RECON,ioos:station:SCCF:12:1,2010-03-02T12:00:00Z,26.4966,-82.1479,2.5,15.49,2 
SCCF RECON,ioos:station:SCCF:12:1,2010-03-02T13:00:00Z,26.4966,-82.1479,2.5,15.5,2 
SCCF RECON,ioos:station:SCCF:12:1,2010-03-02T14:00:00Z,26.4966,-82.1479,2.5,15.53,2 
SCCF RECON,ioos:station:SCCF:12:1,2010-03-02T15:00:00Z,26.4966,-82.1479,2.5,15.56,2 
SCCF RECON,ioos:station:SCCF:12:1,2010-03-02T16:00:00Z,26.4966,-82.1479,2.5,15.63,2 
SCCF RECON,ioos:station:SCCF:12:1,2010-03-02T17:00:00Z,26.4966,-82.1479,2.5,15.81,2 
SCCF RECON,ioos:station:SCCF:12:1,2010-03-02T18:00:00Z,26.4966,-82.1479,2.5,16.26,2 
SCCF RECON,ioos:station:SCCF:12:1,2010-03-02T19:00:00Z,26.4966,-82.1479,2.5,16.12,2 
SCCF RECON,ioos:station:SCCF:12:1,2010-03-02T20:00:00Z,26.4966,-82.1479,2.5,15.94,2 
SCCF RECON,ioos:station:SCCF:12:1,2010-03-02T21:00:00Z,26.4966,-82.1479,2.5,16.08,2 
SCCF RECON,ioos:station:SCCF:12:1,2010-03-02T22:00:00Z,26.4966,-82.1479,2.5,16.14,2 
SCCF RECON,ioos:station:SCCF:12:1,2010-03-02T23:00:00Z,26.4966,-82.1479,2.5,16.29,2 
SCCF RECON,ioos:station:SCCF:12:1,2010-03-03T00:00:00Z,26.4966,-82.1479,2.5,16.17,2 
SCCF RECON,ioos:station:SCCF:12:1,2010-03-03T01:00:00Z,26.4966,-82.1479,2.5,16.15,2 
SCCF RECON,ioos:station:SCCF:12:1,2010-03-03T02:00:00Z,26.4966,-82.1479,2.5,16.12,2 
SCCF RECON,ioos:station:SCCF:12:1,2010-03-03T03:00:00Z,26.4966,-82.1479,2.5,16.15,2 
SCCF RECON,ioos:station:SCCF:12:1,2010-03-03T04:00:00Z,26.4966,-82.1479,2.5,16.1,2 
SCCF RECON,ioos:station:SCCF:12:1,2010-03-03T05:00:00Z,26.4966,-82.1479,2.5,15.85,2 
SCCF RECON,ioos:station:SCCF:12:1,2010-03-03T06:00:00Z,26.4966,-82.1479,2.5,15.86,2 
SCCF RECON,ioos:station:SCCF:12:1,2010-03-03T07:00:00Z,26.4966,-82.1479,2.5,15.94,2 
SCCF RECON,ioos:station:SCCF:12:1,2010-03-03T08:00:00Z,26.4966,-82.1479,2.5,15.87,2 
SCCF RECON,ioos:station:SCCF:12:1,2010-03-03T09:00:00Z,26.4966,-82.1479,2.5,15.82,2 
SCCF RECON,ioos:station:SCCF:12:1,2010-03-03T10:00:00Z,26.4966,-82.1479,2.5,15.71,2 
SCCF RECON,ioos:station:SCCF:12:1,2010-03-03T11:00:00Z,26.4966,-82.1479,2.5,15.6,2 
SCCF RECON,ioos:station:SCCF:12:1,2010-03-03T12:00:00Z,26.4966,-82.1479,2.5,15.45,2 
SCCF RECON,ioos:station:SCCF:12:1,2010-03-03T13:00:00Z,26.4966,-82.1479,2.5,15.35,2 
SCCF RECON,ioos:station:SCCF:12:1,2010-03-03T14:00:00Z,26.4966,-82.1479,2.5,15.2,2 
SCCF RECON,ioos:station:SCCF:12:1,2010-03-03T15:00:00Z,26.4966,-82.1479,2.5,15.15,2 
SCCF RECON,ioos:station:SCCF:12:1,2010-03-03T16:00:00Z,26.4966,-82.1479,2.5,15.09,2 
SCCF RECON,ioos:station:SCCF:12:1,2010-03-03T17:00:00Z,26.4966,-82.1479,2.5,15.12,2 
SCCF RECON,ioos:station:SCCF:12:1,2010-03-03T18:00:00Z,26.4966,-82.1479,2.5,15.17,2 
SCCF RECON,ioos:station:SCCF:12:1,2010-03-03T19:00:00Z,26.4966,-82.1479,2.5,15.29,2 
SCCF RECON,ioos:station:SCCF:12:1,2010-03-03T20:00:00Z,26.4966,-82.1479,2.5,15.36,2 
SCCF RECON,ioos:station:SCCF:12:1,2010-03-03T21:00:00Z,26.4966,-82.1479,2.5,15.4,2 
SCCF RECON,ioos:station:SCCF:12:1,2010-03-03T22:00:00Z,26.4966,-82.1479,2.5,15.46,2 
SCCF RECON,ioos:station:SCCF:12:1,2010-03-03T23:00:00Z,26.4966,-82.1479,2.5,15.41,2 
SCCF RECON,ioos:station:SCCF:12:1,2010-03-04T00:00:00Z,26.4966,-82.1479,2.5,15.35,2 
SCCF RECON,ioos:station:SCCF:12:1,2010-03-04T01:00:00Z,26.4966,-82.1479,2.5,15.35,2 
SCCF RECON,ioos:station:SCCF:12:1,2010-03-04T02:00:00Z,26.4966,-82.1479,2.5,15.45,2 
SCCF RECON,ioos:station:SCCF:12:1,2010-03-04T03:00:00Z,26.4966,-82.1479,2.5,15.34,2 
SCCF RECON,ioos:station:SCCF:12:1,2010-03-04T04:00:00Z,26.4966,-82.1479,2.5,15.23,2 
SCCF RECON,ioos:station:SCCF:12:1,2010-03-04T05:00:00Z,26.4966,-82.1479,2.5,14.96,2 
SCCF RECON,ioos:station:SCCF:12:1,2010-03-04T06:00:00Z,26.4966,-82.1479,2.5,15.0,2 
SCCF RECON,ioos:station:SCCF:12:1,2010-03-04T07:00:00Z,26.4966,-82.1479,2.5,14.94,2 
SCCF RECON,ioos:station:SCCF:12:1,2010-03-04T08:00:00Z,26.4966,-82.1479,2.5,14.81,2 
SCCF RECON,ioos:station:SCCF:12:1,2010-03-04T09:00:00Z,26.4966,-82.1479,2.5,14.64,2 
SCCF RECON,ioos:station:SCCF:12:1,2010-03-04T10:00:00Z,26.4966,-82.1479,2.5,14.66,2 
SCCF RECON,ioos:station:SCCF:12:1,2010-03-04T11:00:00Z,26.4966,-82.1479,2.5,14.65,2 
SCCF RECON,ioos:station:SCCF:12:1,2010-03-04T12:00:00Z,26.4966,-82.1479,2.5,14.68,2 
SCCF RECON,ioos:station:SCCF:12:1,2010-03-04T13:00:00Z,26.4966,-82.1479,2.5,14.6,2 
SCCF RECON,ioos:station:SCCF:12:1,2010-03-04T14:00:00Z,26.4966,-82.1479,2.5,14.47,2 
SCCF RECON,ioos:station:SCCF:12:1,2010-03-04T15:00:00Z,26.4966,-82.1479,2.5,14.38,2 
SCCF RECON,ioos:station:SCCF:12:1,2010-03-04T16:00:00Z,26.4966,-82.1479,2.5,14.47,2 
SCCF RECON,ioos:station:SCCF:12:1,2010-03-04T17:00:00Z,26.4966,-82.1479,2.5,14.31,2 
SCCF RECON,ioos:station:SCCF:12:1,2010-03-04T18:00:00Z,26.4966,-82.1479,2.5,14.59,2 
SCCF RECON,ioos:station:SCCF:12:1,2010-03-04T19:00:00Z,26.4966,-82.1479,2.5,14.74,2 
SCCF RECON,ioos:station:SCCF:12:1,2010-03-04T20:00:00Z,26.4966,-82.1479,2.5,14.82,2 
SCCF RECON,ioos:station:SCCF:12:1,2010-03-04T21:00:00Z,26.4966,-82.1479,2.5,14.95,2 
SCCF RECON,ioos:station:SCCF:12:1,2010-03-04T22:00:00Z,26.4966,-82.1479,2.5,14.91,2 
SCCF RECON,ioos:station:SCCF:12:1,2010-03-04T23:00:00Z,26.4966,-82.1479,2.5,14.87,2 
SCCF RECON,ioos:station:SCCF:12:1,2010-03-05T00:00:00Z,26.4966,-82.1479,2.5,14.79,2 
SCCF RECON,ioos:station:SCCF:12:1,2010-03-05T01:00:00Z,26.4966,-82.1479,2.5,14.7,2 
SCCF RECON,ioos:station:SCCF:12:1,2010-03-05T02:00:00Z,26.4966,-82.1479,2.5,14.71,2 
SCCF RECON,ioos:station:SCCF:12:1,2010-03-05T03:00:00Z,26.4966,-82.1479,2.5,14.51,2 
SCCF RECON,ioos:station:SCCF:12:1,2010-03-05T04:00:00Z,26.4966,-82.1479,2.5,14.47,2 
SCCF RECON,ioos:station:SCCF:12:1,2010-03-05T05:00:00Z,26.4966,-82.1479,2.5,14.53,2 
SCCF RECON,ioos:station:SCCF:12:1,2010-03-05T06:00:00Z,26.4966,-82.1479,2.5,14.32,2 
SCCF RECON,ioos:station:SCCF:12:1,2010-03-05T07:00:00Z,26.4966,-82.1479,2.5,14.13,2 
SCCF RECON,ioos:station:SCCF:12:1,2010-03-05T08:00:00Z,26.4966,-82.1479,2.5,14.04,2 
SCCF RECON,ioos:station:SCCF:12:1,2010-03-05T09:00:00Z,26.4966,-82.1479,2.5,14.1,2 
SCCF RECON,ioos:station:SCCF:12:1,2010-03-05T10:00:00Z,26.4966,-82.1479,2.5,14.02,2 
SCCF RECON,ioos:station:SCCF:12:1,2010-03-05T11:00:00Z,26.4966,-82.1479,2.5,13.93,2 
SCCF RECON,ioos:station:SCCF:12:1,2010-03-05T12:00:00Z,26.4966,-82.1479,2.5,13.96,2 
SCCF RECON,ioos:station:SCCF:12:1,2010-03-05T13:00:00Z,26.4966,-82.1479,2.5,13.91,2 
SCCF RECON,ioos:station:SCCF:12:1,2010-03-05T14:00:00Z,26.4966,-82.1479,2.5,13.94,2 
SCCF RECON,ioos:station:SCCF:12:1,2010-03-05T15:00:00Z,26.4966,-82.1479,2.5,13.81,2 
SCCF RECON,ioos:station:SCCF:12:1,2010-03-05T16:00:00Z,26.4966,-82.1479,2.5,13.88,2 
SCCF RECON,ioos:station:SCCF:12:1,2010-03-05T17:00:00Z,26.4966,-82.1479,2.5,13.98,2 
SCCF RECON,ioos:station:SCCF:12:1,2010-03-05T18:00:00Z,26.4966,-82.1479,2.5,13.98,2 
SCCF RECON,ioos:station:SCCF:12:1,2010-03-05T19:00:00Z,26.4966,-82.1479,2.5,14.08,2 
SCCF RECON,ioos:station:SCCF:12:1,2010-03-05T20:00:00Z,26.4966,-82.1479,2.5,14.25,2 
SCCF RECON,ioos:station:SCCF:12:1,2010-03-05T21:00:00Z,26.4966,-82.1479,2.5,14.34,2 
SCCF RECON,ioos:station:SCCF:12:1,2010-03-05T22:00:00Z,26.4966,-82.1479,2.5,14.31,2 
SCCF RECON,ioos:station:SCCF:12:1,2010-03-05T23:00:00Z,26.4966,-82.1479,2.5,14.27,2 
SCCF RECON,ioos:station:SCCF:12:1,2010-03-06T00:00:00Z,26.4966,-82.1479,2.5,14.17,2 
SCCF RECON,ioos:station:SCCF:12:1,2010-03-06T01:00:00Z,26.4966,-82.1479,2.5,14.26,2 
SCCF RECON,ioos:station:SCCF:12:1,2010-03-06T02:00:00Z,26.4966,-82.1479,2.5,14.14,2 
SCCF RECON,ioos:station:SCCF:12:1,2010-03-06T03:00:00Z,26.4966,-82.1479,2.5,14.17,2 
SCCF RECON,ioos:station:SCCF:12:1,2010-03-06T04:00:00Z,26.4966,-82.1479,2.5,14.21,2 
SCCF RECON,ioos:station:SCCF:12:1,2010-03-06T05:00:00Z,26.4966,-82.1479,2.5,14.01,2 
SCCF RECON,ioos:station:SCCF:12:1,2010-03-06T06:00:00Z,26.4966,-82.1479,2.5,13.97,2 
SCCF RECON,ioos:station:SCCF:12:1,2010-03-06T07:00:00Z,26.4966,-82.1479,2.5,13.92,2 
SCCF RECON,ioos:station:SCCF:12:1,2010-03-06T08:00:00Z,26.4966,-82.1479,2.5,13.78,2 
SCCF RECON,ioos:station:SCCF:12:1,2010-03-06T09:00:00Z,26.4966,-82.1479,2.5,13.59,2 
SCCF RECON,ioos:station:SCCF:12:1,2010-03-06T10:00:00Z,26.4966,-82.1479,2.5,13.59,2 
SCCF RECON,ioos:station:SCCF:12:1,2010-03-06T11:00:00Z,26.4966,-82.1479,2.5,13.54,2 
SCCF RECON,ioos:station:SCCF:12:1,2010-03-06T12:00:00Z,26.4966,-82.1479,2.5,13.4,2 
SCCF RECON,ioos:station:SCCF:12:1,2010-03-06T13:00:00Z,26.4966,-82.1479,2.5,13.35,2 
SCCF RECON,ioos:station:SCCF:12:1,2010-03-06T14:00:00Z,26.4966,-82.1479,2.5,13.35,2 
SCCF RECON,ioos:station:SCCF:12:1,2010-03-06T15:00:00Z,26.4966,-82.1479,2.5,13.41,2 
SCCF RECON,ioos:station:SCCF:12:1,2010-03-06T16:00:00Z,26.4966,-82.1479,2.5,13.5,2 
SCCF RECON,ioos:station:SCCF:12:1,2010-03-06T17:00:00Z,26.4966,-82.1479,2.5,13.65,2 
SCCF RECON,ioos:station:SCCF:12:1,2010-03-06T18:00:00Z,26.4966,-82.1479,2.5,13.79,2 
SCCF RECON,ioos:station:SCCF:12:1,2010-03-06T19:00:00Z,26.4966,-82.1479,2.5,13.8,2 
SCCF RECON,ioos:station:SCCF:12:1,2010-03-06T20:00:00Z,26.4966,-82.1479,2.5,13.91,2 
SCCF RECON,ioos:station:SCCF:12:1,2010-03-06T21:00:00Z,26.4966,-82.1479,2.5,13.99,2 
SCCF RECON,ioos:station:SCCF:12:1,2010-03-06T22:00:00Z,26.4966,-82.1479,2.5,14.02,2 
SCCF RECON,ioos:station:SCCF:12:1,2010-03-06T23:00:00Z,26.4966,-82.1479,2.5,14.0,2 
SCCF RECON,ioos:station:SCCF:12:1,2010-03-07T00:00:00Z,26.4966,-82.1479,2.5,13.95,2 
SCCF RECON,ioos:station:SCCF:12:1,2010-03-07T01:00:00Z,26.4966,-82.1479,2.5,13.85,2 
SCCF RECON,ioos:station:SCCF:12:1,2010-03-07T02:00:00Z,26.4966,-82.1479,2.5,14.1,2 
SCCF RECON,ioos:station:SCCF:12:1,2010-03-07T03:00:00Z,26.4966,-82.1479,2.5,14.12,2 
SCCF RECON,ioos:station:SCCF:12:1,2010-03-07T04:00:00Z,26.4966,-82.1479,2.5,14.07,2 
SCCF RECON,ioos:station:SCCF:12:1,2010-03-07T05:00:00Z,26.4966,-82.1479,2.5,14.04,2 
SCCF RECON,ioos:station:SCCF:12:1,2010-03-07T06:00:00Z,26.4966,-82.1479,2.5,13.99,2 
SCCF RECON,ioos:station:SCCF:12:1,2010-03-07T07:00:00Z,26.4966,-82.1479,2.5,13.92,2 
SCCF RECON,ioos:station:SCCF:12:1,2010-03-07T08:00:00Z,26.4966,-82.1479,2.5,13.88,2 
SCCF RECON,ioos:station:SCCF:12:1,2010-03-07T09:00:00Z,26.4966,-82.1479,2.5,13.8,2 
SCCF RECON,ioos:station:SCCF:12:1,2010-03-07T10:00:00Z,26.4966,-82.1479,2.5,13.7,2 
SCCF RECON,ioos:station:SCCF:12:1,2010-03-07T11:00:00Z,26.4966,-82.1479,2.5,13.61,2 
SCCF RECON,ioos:station:SCCF:12:1,2010-03-07T12:00:00Z,26.4966,-82.1479,2.5,13.56,2 
SCCF RECON,ioos:station:SCCF:12:1,2010-03-07T13:00:00Z,26.4966,-82.1479,2.5,13.5,2 
SCCF RECON,ioos:station:SCCF:12:1,2010-03-07T14:00:00Z,26.4966,-82.1479,2.5,13.61,2 
SCCF RECON,ioos:station:SCCF:12:1,2010-03-07T15:00:00Z,26.4966,-82.1479,2.5,13.63,2 
SCCF RECON,ioos:station:SCCF:12:1,2010-03-07T16:00:00Z,26.4966,-82.1479,2.5,13.76,2 
SCCF RECON,ioos:station:SCCF:12:1,2010-03-07T17:00:00Z,26.4966,-82.1479,2.5,13.92,2 
SCCF RECON,ioos:station:SCCF:12:1,2010-03-07T18:00:00Z,26.4966,-82.1479,2.5,14.11,2 
SCCF RECON,ioos:station:SCCF:12:1,2010-03-07T19:00:00Z,26.4966,-82.1479,2.5,14.14,2 
SCCF RECON,ioos:station:SCCF:12:1,2010-03-07T20:00:00Z,26.4966,-82.1479,2.5,14.22,2 
SCCF RECON,ioos:station:SCCF:12:1,2010-03-07T21:00:00Z,26.4966,-82.1479,2.5,14.27,2 
SCCF RECON,ioos:station:SCCF:12:1,2010-03-07T22:00:00Z,26.4966,-82.1479,2.5,14.44,2 
SCCF RECON,ioos:station:SCCF:12:1,2010-03-07T23:00:00Z,26.4966,-82.1479,2.5,14.43,2 
SCCF RECON,ioos:station:SCCF:12:1,2010-03-08T00:00:00Z,26.4966,-82.1479,2.5,14.41,2 
SCCF RECON,ioos:station:SCCF:12:1,2010-03-08T01:00:00Z,26.4966,-82.1479,2.5,14.43,2 
SCCF RECON,ioos:station:SCCF:12:1,2010-03-08T02:00:00Z,26.4966,-82.1479,2.5,14.32,2 
SCCF RECON,ioos:station:SCCF:12:1,2010-03-08T03:00:00Z,26.4966,-82.1479,2.5,14.24,2 
SCCF RECON,ioos:station:SCCF:12:1,2010-03-08T04:00:00Z,26.4966,-82.1479,2.5,14.19,2 
SCCF RECON,ioos:station:SCCF:12:1,2010-03-08T05:00:00Z,26.4966,-82.1479,2.5,14.14,2 
SCCF RECON,ioos:station:SCCF:12:1,2010-03-08T06:00:00Z,26.4966,-82.1479,2.5,14.16,2 
SCCF RECON,ioos:station:SCCF:12:1,2010-03-08T07:00:00Z,26.4966,-82.1479,2.5,14.09,2 
SCCF RECON,ioos:station:SCCF:12:1,2010-03-08T08:00:00Z,26.4966,-82.1479,2.5,14.12,2 
SCCF RECON,ioos:station:SCCF:12:1,2010-03-08T09:00:00Z,26.4966,-82.1479,2.5,14.24,2 
SCCF RECON,ioos:station:SCCF:12:1,2010-03-08T10:00:00Z,26.4966,-82.1479,2.5,14.07,2 
SCCF RECON,ioos:station:SCCF:12:1,2010-03-08T11:00:00Z,26.4966,-82.1479,2.5,13.95,2 
SCCF RECON,ioos:station:SCCF:12:1,2010-03-08T12:00:00Z,26.4966,-82.1479,2.5,13.9,2 
SCCF RECON,ioos:station:SCCF:12:1,2010-03-08T13:00:00Z,26.4966,-82.1479,2.5,13.76,2 
SCCF RECON,ioos:station:SCCF:12:1,2010-03-08T14:00:00Z,26.4966,-82.1479,2.5,14.05,2 
SCCF RECON,ioos:station:SCCF:12:1,2010-03-08T15:00:00Z,26.4966,-82.1479,2.5,14.05,2 
SCCF RECON,ioos:station:SCCF:12:1,2010-03-08T16:00:00Z,26.4966,-82.1479,2.5,14.07,2 
SCCF RECON,ioos:station:SCCF:12:1,2010-03-08T17:00:00Z,26.4966,-82.1479,2.5,14.18,2 
SCCF RECON,ioos:station:SCCF:12:1,2010-03-08T18:00:00Z,26.4966,-82.1479,2.5,14.23,2 
SCCF RECON,ioos:station:SCCF:12:1,2010-03-08T19:00:00Z,26.4966,-82.1479,2.5,14.37,2 
SCCF RECON,ioos:station:SCCF:12:1,2010-03-08T20:00:00Z,26.4966,-82.1479,2.5,14.45,2 
SCCF RECON,ioos:station:SCCF:12:1,2010-03-08T21:00:00Z,26.4966,-82.1479,2.5,15.32,2 
SCCF RECON,ioos:station:SCCF:12:1,2010-03-08T22:00:00Z,26.4966,-82.1479,2.5,14.56,2 
SCCF RECON,ioos:station:SCCF:12:1,2010-03-08T23:00:00Z,26.4966,-82.1479,2.5,15.01,2 
SCCF RECON,ioos:station:SCCF:12:1,2010-03-09T00:00:00Z,26.4966,-82.1479,2.5,14.86,2 
SCCF RECON,ioos:station:SCCF:12:1,2010-03-09T01:00:00Z,26.4966,-82.1479,2.5,14.96,2 
SCCF RECON,ioos:station:SCCF:12:1,2010-03-09T02:00:00Z,26.4966,-82.1479,2.5,15.4,2 
SCCF RECON,ioos:station:SCCF:12:1,2010-03-09T03:00:00Z,26.4966,-82.1479,2.5,15.38,2 
SCCF RECON,ioos:station:SCCF:12:1,2010-03-09T04:00:00Z,26.4966,-82.1479,2.5,15.31,2 
SCCF RECON,ioos:station:SCCF:12:1,2010-03-09T05:00:00Z,26.4966,-82.1479,2.5,15.23,2 
SCCF RECON,ioos:station:SCCF:12:1,2010-03-09T06:00:00Z,26.4966,-82.1479,2.5,15.2,2 
SCCF RECON,ioos:station:SCCF:12:1,2010-03-09T07:00:00Z,26.4966,-82.1479,2.5,15.29,2 
SCCF RECON,ioos:station:SCCF:12:1,2010-03-09T08:00:00Z,26.4966,-82.1479,2.5,15.26,2 
SCCF RECON,ioos:station:SCCF:12:1,2010-03-09T09:00:00Z,26.4966,-82.1479,2.5,15.09,2 
SCCF RECON,ioos:station:SCCF:12:1,2010-03-09T10:00:00Z,26.4966,-82.1479,2.5,14.73,2 
SCCF RECON,ioos:station:SCCF:12:1,2010-03-09T11:00:00Z,26.4966,-82.1479,2.5,14.68,2 
SCCF RECON,ioos:station:SCCF:12:1,2010-03-09T12:00:00Z,26.4966,-82.1479,2.5,14.68,2 
SCCF RECON,ioos:station:SCCF:12:1,2010-03-09T13:00:00Z,26.4966,-82.1479,2.5,14.64,2 
SCCF RECON,ioos:station:SCCF:12:1,2010-03-09T14:00:00Z,26.4966,-82.1479,2.5,14.6,2 
SCCF RECON,ioos:station:SCCF:12:1,2010-03-09T15:00:00Z,26.4966,-82.1479,2.5,14.79,2 
SCCF RECON,ioos:station:SCCF:12:1,2010-03-09T16:00:00Z,26.4966,-82.1479,2.5,15.13,2 
SCCF RECON,ioos:station:SCCF:12:1,2010-03-09T17:00:00Z,26.4966,-82.1479,2.5,15.18,2 
SCCF RECON,ioos:station:SCCF:12:1,2010-03-09T18:00:00Z,26.4966,-82.1479,2.5,15.3,2 
SCCF RECON,ioos:station:SCCF:12:1,2010-03-09T19:00:00Z,26.4966,-82.1479,2.5,15.38,2 
SCCF RECON,ioos:station:SCCF:12:1,2010-03-09T20:00:00Z,26.4966,-82.1479,2.5,15.46,2 
SCCF RECON,ioos:station:SCCF:12:1,2010-03-09T21:00:00Z,26.4966,-82.1479,2.5,15.53,2 
SCCF RECON,ioos:station:SCCF:12:1,2010-03-09T22:00:00Z,26.4966,-82.1479,2.5,15.49,2 
SCCF RECON,ioos:station:SCCF:12:1,2010-03-09T23:00:00Z,26.4966,-82.1479,2.5,15.54,2 
SCCF RECON,ioos:station:SCCF:12:1,2010-03-10T00:00:00Z,26.4966,-82.1479,2.5,15.47,2 
SCCF RECON,ioos:station:SCCF:12:1,2010-03-10T01:00:00Z,26.4966,-82.1479,2.5,15.3,2 
SCCF RECON,ioos:station:SCCF:12:1,2010-03-10T02:00:00Z,26.4966,-82.1479,2.5,15.34,2 
SCCF RECON,ioos:station:SCCF:12:1,2010-03-10T03:00:00Z,26.4966,-82.1479,2.5,15.38,2 
SCCF RECON,ioos:station:SCCF:12:1,2010-03-10T04:00:00Z,26.4966,-82.1479,2.5,15.45,2 
SCCF RECON,ioos:station:SCCF:12:1,2010-03-10T05:00:00Z,26.4966,-82.1479,2.5,15.44,2 
SCCF RECON,ioos:station:SCCF:12:1,2010-03-10T06:00:00Z,26.4966,-82.1479,2.5,15.4,2 
SCCF RECON,ioos:station:SCCF:12:1,2010-03-10T07:00:00Z,26.4966,-82.1479,2.5,15.4,2 
SCCF RECON,ioos:station:SCCF:12:1,2010-03-10T08:00:00Z,26.4966,-82.1479,2.5,15.42,2 
SCCF RECON,ioos:station:SCCF:12:1,2010-03-10T09:00:00Z,26.4966,-82.1479,2.5,15.37,2 
SCCF RECON,ioos:station:SCCF:12:1,2010-03-10T10:00:00Z,26.4966,-82.1479,2.5,15.29,2 
SCCF RECON,ioos:station:SCCF:12:1,2010-03-10T11:00:00Z,26.4966,-82.1479,2.5,15.22,2 
SCCF RECON,ioos:station:SCCF:12:1,2010-03-10T12:00:00Z,26.4966,-82.1479,2.5,15.03,2 
SCCF RECON,ioos:station:SCCF:12:1,2010-03-10T13:00:00Z,26.4966,-82.1479,2.5,15.03,2 
SCCF RECON,ioos:station:SCCF:12:1,2010-03-10T14:00:00Z,26.4966,-82.1479,2.5,15.22,2 
SCCF RECON,ioos:station:SCCF:12:1,2010-03-10T15:00:00Z,26.4966,-82.1479,2.5,15.41,2 
SCCF RECON,ioos:station:SCCF:12:1,2010-03-10T16:00:00Z,26.4966,-82.1479,2.5,15.56,2 
SCCF RECON,ioos:station:SCCF:12:1,2010-03-10T17:00:00Z,26.4966,-82.1479,2.5,15.84,2 
SCCF RECON,ioos:station:SCCF:12:1,2010-03-10T18:00:00Z,26.4966,-82.1479,2.5,16.26,2 
SCCF RECON,ioos:station:SCCF:12:1,2010-03-10T19:00:00Z,26.4966,-82.1479,2.5,16.51,2 
SCCF RECON,ioos:station:SCCF:12:1,2010-03-10T20:00:00Z,26.4966,-82.1479,2.5,16.71,2 
SCCF RECON,ioos:station:SCCF:12:1,2010-03-10T21:00:00Z,26.4966,-82.1479,2.5,16.81,2 
SCCF RECON,ioos:station:SCCF:12:1,2010-03-10T22:00:00Z,26.4966,-82.1479,2.5,16.86,2 
SCCF RECON,ioos:station:SCCF:12:1,2010-03-10T23:00:00Z,26.4966,-82.1479,2.5,17.08,2 
SCCF RECON,ioos:station:SCCF:12:1,2010-03-11T00:00:00Z,26.4966,-82.1479,2.5,17.09,2 
SCCF RECON,ioos:station:SCCF:12:1,2010-03-11T01:00:00Z,26.4966,-82.1479,2.5,17.03,2 
SCCF RECON,ioos:station:SCCF:12:1,2010-03-11T02:00:00Z,26.4966,-82.1479,2.5,16.93,2 
SCCF RECON,ioos:station:SCCF:12:1,2010-03-11T03:00:00Z,26.4966,-82.1479,2.5,16.94,2 
SCCF RECON,ioos:station:SCCF:12:1,2010-03-11T04:00:00Z,26.4966,-82.1479,2.5,17.01,2 
SCCF RECON,ioos:station:SCCF:12:1,2010-03-11T05:00:00Z,26.4966,-82.1479,2.5,16.98,2 
SCCF RECON,ioos:station:SCCF:12:1,2010-03-11T06:00:00Z,26.4966,-82.1479,2.5,16.85,2 
SCCF RECON,ioos:station:SCCF:12:1,2010-03-11T07:00:00Z,26.4966,-82.1479,2.5,16.87,2 
SCCF RECON,ioos:station:SCCF:12:1,2010-03-11T08:00:00Z,26.4966,-82.1479,2.5,16.94,2 
SCCF RECON,ioos:station:SCCF:12:1,2010-03-11T09:00:00Z,26.4966,-82.1479,2.5,16.85,2 
SCCF RECON,ioos:station:SCCF:12:1,2010-03-11T10:00:00Z,26.4966,-82.1479,2.5,16.86,2 
SCCF RECON,ioos:station:SCCF:12:1,2010-03-11T11:00:00Z,26.4966,-82.1479,2.5,16.98,2 
SCCF RECON,ioos:station:SCCF:12:1,2010-03-11T12:00:00Z,26.4966,-82.1479,2.5,16.94,2 
SCCF RECON,ioos:station:SCCF:12:1,2010-03-11T13:00:00Z,26.4966,-82.1479,2.5,16.9,2 
SCCF RECON,ioos:station:SCCF:12:1,2010-03-11T14:00:00Z,26.4966,-82.1479,2.5,16.95,2 
SCCF RECON,ioos:station:SCCF:12:1,2010-03-11T15:00:00Z,26.4966,-82.1479,2.5,17.27,2 
SCCF RECON,ioos:station:SCCF:12:1,2010-03-11T16:00:00Z,26.4966,-82.1479,2.5,17.27,2 
SCCF RECON,ioos:station:SCCF:12:1,2010-03-11T17:00:00Z,26.4966,-82.1479,2.5,17.63,2 
SCCF RECON,ioos:station:SCCF:12:1,2010-03-11T18:00:00Z,26.4966,-82.1479,2.5,17.45,2 
SCCF RECON,ioos:station:SCCF:12:1,2010-03-11T19:00:00Z,26.4966,-82.1479,2.5,17.78,2 
SCCF RECON,ioos:station:SCCF:12:1,2010-03-11T20:00:00Z,26.4966,-82.1479,2.5,18.0,2 
SCCF RECON,ioos:station:SCCF:12:1,2010-03-11T21:00:00Z,26.4966,-82.1479,2.5,18.06,2 
SCCF RECON,ioos:station:SCCF:12:1,2010-03-11T22:00:00Z,26.4966,-82.1479,2.5,18.1,2 
SCCF RECON,ioos:station:SCCF:12:1,2010-03-11T23:00:00Z,26.4966,-82.1479,2.5,18.01,2 
SCCF RECON,ioos:station:SCCF:12:1,2010-03-12T00:00:00Z,26.4966,-82.1479,2.5,17.97,2 
SCCF RECON,ioos:station:SCCF:12:1,2010-03-12T01:00:00Z,26.4966,-82.1479,2.5,17.98,2 
SCCF RECON,ioos:station:SCCF:12:1,2010-03-12T02:00:00Z,26.4966,-82.1479,2.5,17.98,2 
SCCF RECON,ioos:station:SCCF:12:1,2010-03-12T03:00:00Z,26.4966,-82.1479,2.5,17.95,2 
SCCF RECON,ioos:station:SCCF:12:1,2010-03-12T04:00:00Z,26.4966,-82.1479,2.5,17.97,2 
SCCF RECON,ioos:station:SCCF:12:1,2010-03-12T05:00:00Z,26.4966,-82.1479,2.5,17.96,2 
SCCF RECON,ioos:station:SCCF:12:1,2010-03-12T06:00:00Z,26.4966,-82.1479,2.5,17.97,2 
SCCF RECON,ioos:station:SCCF:12:1,2010-03-12T07:00:00Z,26.4966,-82.1479,2.5,17.98,2 
SCCF RECON,ioos:station:SCCF:12:1,2010-03-12T08:00:00Z,26.4966,-82.1479,2.5,17.98,2 
SCCF RECON,ioos:station:SCCF:12:1,2010-03-12T09:00:00Z,26.4966,-82.1479,2.5,17.97,2 
SCCF RECON,ioos:station:SCCF:12:1,2010-03-12T10:00:00Z,26.4966,-82.1479,2.5,18.57,2 
SCCF RECON,ioos:station:SCCF:12:1,2010-03-12T11:00:00Z,26.4966,-82.1479,2.5,18.61,2 
SCCF RECON,ioos:station:SCCF:12:1,2010-03-12T12:00:00Z,26.4966,-82.1479,2.5,18.35,2 
SCCF RECON,ioos:station:SCCF:12:1,2010-03-12T13:00:00Z,26.4966,-82.1479,2.5,18.06,2 
SCCF RECON,ioos:station:SCCF:12:1,2010-03-12T14:00:00Z,26.4966,-82.1479,2.5,18.02,2 
SCCF RECON,ioos:station:SCCF:12:1,2010-03-12T15:00:00Z,26.4966,-82.1479,2.5,18.24,2 
SCCF RECON,ioos:station:SCCF:12:1,2010-03-12T16:00:00Z,26.4966,-82.1479,2.5,18.33,2 